Location: *
(49.5667°N, 1.3667°W)
Time: 08:14:21
(UTC+00:00)

Cosmos 2181 Rocket - Pass Details

Date: 20 September 2019
Orbit: 953 x 1014 km, 82.9° (Epoch: 22 October)

Event Time Altitude Azimuth Distance (km) Brightness Sun altitude
Rises 19:21:03 0° 168° (SSE) 3,656 6.7 -12.4°
Reaches altitude 10° 19:23:36 10° 163° (SSE) 2,722 6.0 -12.8°
Maximum altitude 19:29:34 49° 90° (E) 1,262 4.2 -13.7°
Drops below altitude 10° 19:35:38 10° 18° (NNE) 2,781 6.4 -14.6°
Sets 19:38:16 0° 14° (NNE) 3,742 7.1 -15.0°
